AirNav   Air Wisconsin Up To $57,000 Bonus
 
 409 users online  

WY11 A Bar A Ranch Airport
Encampment, Wyoming, USA

GOING TO ENCAMPMENT?


FAA INFORMATION EFFECTIVE 22 APRIL 2021

Location

FAA Identifier: WY11
Lat/Long: 41-09-29.8870N 106-33-27.1110W
41-09.498117N 106-33.451850W
41.1583019,-106.5575308
(estimated)
Elevation: 7880 ft. / 2402 m (estimated)
Variation: 13E (1985)
From city: 11 miles E of ENCAMPMENT, WY
Time zone: UTC -6 (UTC -7 during Standard Time)
Zip code: 82325

Airport Operations

Airport use: Private use. Permission required prior to landing
Activation date: 11/1963
Control tower: no
ARTCC: DENVER CENTER
FSS: CASPER FLIGHT SERVICE STATION
Attendance: UNATNDD
Wind indicator: yes
Segmented circle: no
Landing fee: yes

Airport Communications

UNICOM: 122.8

Nearby radio navigation aids

VOR radial/distance  VOR name  Freq  Var
LARr240/39.2LARAMIE VOR/DME117.6014E

 
NDB name  Hdg/Dist  Freq  Var  ID
SARATOGA132/21.226612ESAA ... .- .-

Airport Services

Airframe service: NONE
Powerplant service: NONE

Runway Information

Runway NW/SE

Dimensions: 5704 x 50 ft. / 1739 x 15 m
Surface: asphalt, in excellent condition
RUNWAY NW  RUNWAY SE
Traffic pattern: leftleft

Airport Ownership and Management from official FAA records

Ownership: Privately-owned
Owner: A BAR A RANCH
PO BOX 247
ENCAMPMENT, WY 82325
Phone 307-327-5454
Manager: JUSTIN HOWE
PO BOX 247
ENCAMPMENT, WY 82325
Phone 307-327-5454

Airport Operational Statistics

Aircraft based on the field: 1
Single engine airplanes: 1
    

Additional Remarks

FREQUENT CROSS WIND.
NUMEROUS HILLS AROUND ARPT. HILL ON S END OF RY FROM 3800 FT TO 4900 FT.
FLY OVER PRIOR TO LANDING RECOMMENDED.
CALL A BAR A RANCH TO ARRANGE PICK-UP AND RY SECURITY 307-327-5454.
ROAD CROSSES MID-FLD.
UNICOM TO A BAR A AVBL FM AIR ONLY.
RANCH HQ 4 MIS E OF RWY.
FOR CD CTC DENVER ARTCC AT 303-651-4257.

Instrument Procedures

There are no published instrument procedures at WY11.

Some nearby airports with instrument procedures:

KSAA - Shively Field Airport (21 nm NW)
33V - Walden-Jackson County Airport (28 nm SE)
KLAR - Laramie Regional Airport (41 nm E)
KSBS - Steamboat Springs Airport/Bob Adams Field (41 nm S)
KDWX - Dixon Airport (43 nm W)
 
Loc | Ops | Rwys | IFR | FBO | Links
Com | Nav | Svcs | Stats | Notes

AirBoss

 
Area around WY11 (A Bar A Ranch Airport)
 
Road maps at: MapQuest Bing Google
 
Aerial photo
WARNING: Photo may not be current or correct
Aerial photo of WY11 (A Bar A Ranch Airport)
looking southeast.

Do you have a better or more recent aerial photo of A Bar A Ranch Airport that you would like to share? If so, please send us your photo.

 
Sectional chart

 
Airport distance calculator
Flying to A Bar A Ranch Airport? Find the distance to fly.

From to WY11

Sunrise and sunset
Times for 13-May-2021
 Local
(UTC-6)
 Zulu
(UTC)
Morning civil twilight05:2011:20
Sunrise05:5111:51
Sunset20:1402:14
Evening civil twilight20:4502:45

Current date and time
Zulu (UTC)  13-May-2021 07:04:54
Local (UTC-6)  13-May-2021 01:04:54
 
METAR
KSAA 
21nm NW 
130655Z AUTO 14007KT 10SM CLR 04/M03 A3025 RMK AO2
K33V 
28nm SE 
130655Z AUTO 11004KT 10SM CLR M01/M05 A3033 RMK AO2 T10131052
KEHY 
35nm N 
130655Z AUTO 10SM SCT120 01/M06 A3024 RMK AO2 PWINO
KSBS 
41nm S 
130655Z AUTO 00000KT 10SM CLR 04/M04 A3027 RMK AO1 T00381040
KLAR 
41nm E 
130653Z AUTO 17010KT 10SM CLR 02/M02 A3026 RMK AO2 SLP201 T00221017 401331033
TAF
KLAR 
41nm E 
130531Z 1306/1406 18009KT P6SM BKN090 FM131500 30016G28KT P6SM BKN090 FM140100 33009KT P6SM BKN090
KRWL 
47nm NW 
130531Z 1306/1406 24008KT P6SM SCT090 FM131500 28018G30KT P6SM BKN090 FM140100 33010KT P6SM BKN090
NOTAMs
Click for the latest NOTAMs
NOTAMs are issued by the DoD/FAA and will open in a separate window not controlled by AirNav.

 

 
 

Would you like to see your business listed on this page?

 If your business provides an interesting product or service to pilots, flight crews, aircraft, or users of the A Bar A Ranch Airport, you should consider listing it here.  To start the listing process, click on the button below
 
Add a business
 

Other Pages about A Bar A Ranch Airport

Update a link
 
Copyright © AirNav, LLC. All rights reserved. Privacy Policy  Contact